Hourly Weather Roundup
Issued by NWS Central Illinois

Home | Current Version | Previous Version | Text Only | Print | Product List | Glossary On
Versions: 1 2 3 4 5 6 7 8 9 10 11 12 13 14 15 16 17 18 19 20 21 22 23 24 25 26 27 28 29 30 31 32 33 34 35 36 37 38 39 40 41 42 43 44 45 46 47 48 49 50
321
NZUS43 KILX 241110
HWRILX

Area Weather Roundup
National Weather Service Lincoln IL
600 AM CDT MON JUL 24 2017

NOTE:  "FAIR" indicates few or no clouds below 12,000 feet, with
       no sigificant weather and/or obstructions to visibility.


CITY           SKY/WX    TMP DP  RH WIND       PRES   REMARKS
Bloomington    PTCLDY    64  63  96 NE9       29.95R
Champaign      CLEAR     67  65  93 N10       29.92R
Danville       CLEAR     64  64 100 NE5       29.90R FOG
Decatur        CLEAR     67  65  93 CALM      29.93R
Effingham      CLEAR     69  69 100 CALM      29.94R
Flora          CLEAR     73  71  93 N5        29.92R
Galesburg      CLEAR     60  60  99 CALM      29.97R
Jacksonville   CLEAR     63  61  94 CALM      29.94R
Lacon          CLOUDY    68  67  97 NE3       29.95R
Lawrenceville  MOCLDY    73  71  93 N3        29.91R
Litchfield     CLEAR     66  65  97 NW3       29.94R
$$


CITY           SKY/WX    TMP DP  RH WIND       PRES   REMARKS
Lincoln        CLEAR     67  66  97 NW3       29.93R
Macomb         CLEAR     62  61  96 N3        29.98R
Mattoon        CLEAR     67  66  97 CALM      29.92R
Mt Carmel AP   PTCLDY    69  67  96 CALM      29.90R
Olney-Noble AP CLEAR     69  67  93 CALM      29.92R FOG
Paris AP       CLEAR     65  65 100 CALM      29.92R
Peoria         CLEAR     66  64  93 MISG      29.95R
Pontiac        CLOUDY    67  67  98 NE10      29.96R
Rantoul        CLEAR     68  67  96 N10       29.93R FOG
Robinson       CLEAR     67  67 100 NW3       29.92R
Springfield    PTCLDY    68  66  93 N5        29.94R
Taylorville    PTCLDY    64  64  98 N3        29.94R
$$

...REGIONAL REPORTS...


CITY           SKY/WX    TMP DP  RH WIND       PRES   REMARKS
Chicago O`Hare MOCLDY    67  60  78 N10       29.97R
Kankakee       NOT AVBL
Moline         CLOUDY    68  62  81 CALM      29.97R
Mount Sterling CLEAR     63  61  94 NW3       29.96R
Mount Vernon   CLEAR     68  68 100 CALM      29.91R FOG
Pittsfield     PTCLDY    67  64  87 CALM      29.97R
Quincy         CLEAR     64  61  90 N3        29.96R
Rockford       CLOUDY    67  59  75 NE13      30.00R
$$


CITY           SKY/WX    TMP DP  RH WIND       PRES   REMARKS
Burlington     CLEAR     64  62  93 N6        29.96R
Cedar Rapids   CLEAR     59  59 100 N6        29.99R
Des Moines     PTCLDY    64  60  87 NE6       30.01R
Kirksville     CLEAR     63  60  90 N7        30.00R
Ottumwa        CLEAR     62  60  93 N7        29.99R
St Louis       PTCLDY    74  66  76 N8        29.94R
$$


CITY           SKY/WX    TMP DP  RH WIND       PRES   REMARKS
Terre Haute    PTCLDY    66  64  93 CALM      29.92R
Evansville     CLOUDY    72  70  93 CALM      29.91R
Indianapolis   PTCLDY    68  64  87 N3        29.89R
Lafayette      CLEAR     67  66  97 N10       29.91R
Madison        MOCLDY    60  57  89 N6        30.02R
Milwaukee      DRIZZLE   64  61  90 N13       30.00R
$$






USA.gov is the U.S. government's official web portal to all federal, state and local government web resources and services.